This demonstration page uses our WeatherBlox Daily Observations layout. Learn more.

Left ArrowRight Arrow

Hourly Observations for February 12, 2020

Temp ( °F °C ) Dew Point ( °F °C ) Humidity (%) Winds ( mph kmh ) Pressure ( in mb ) Visibility ( mi km ) Precip ( " mm )
12:03 am 00:03 Cloudy with Light Snow 29 -1.7 25 -3.9 85 85 NE 14 22 30.06 1018 2 3 0.00 0.00
12:13 am 00:13 Cloudy with Light Snow 28 -2.2 23 -5 81 81 NE 16 26 30.08 1019 6 10 0.00 0.00
12:36 am 00:36 Cloudy 26 -3.3 20 -6.7 78 78 NE 18 30 30.13 1020 10 16 0.00 0.00
12:53 am 00:53 Cloudy 25 -3.9 20 -6.7 81 81 NE 15 24 30.09 1019 10 16 0.00 0.00
1:53 am 01:53 Cloudy 23 -5 16 -8.9 74 74 NNE 15 24 30.17 1022 10 16 0.00 0.00
2:53 am 02:53 Cloudy 21 -6.1 15 -9.4 78 78 NNE 15 24 30.23 1024 10 16 0.00 0.00
3:53 am 03:53 Cloudy 20 -6.7 12 -11.1 71 71 N 17 28 30.27 1025 10 16 0.00 0.00
4:53 am 04:53 Cloudy 18 -7.8 10 -12.2 71 71 N 10 17 30.34 1027 10 16 0.00 0.00
5:53 am 05:53 Cloudy with Light Snow 15 -9.4 10 -12.2 80 80 NNE 9 15 30.39 1029 6 10 0.00 0.00
6:36 am 06:36 Cloudy 15 -9.4 9 -12.8 77 77 NE 9 15 30.49 1032 10 16 0.00 0.00
6:53 am 06:53 Cloudy 14 -10 8 -13.3 77 77 NE 12 19 30.40 1029 10 16 0.00 0.00
7:53 am 07:53 Cloudy 13 -10.6 5 -15 70 70 NNE 8 13 30.43 1030 10 16 0.00 0.00
8:53 am 08:53 Cloudy 13 -10.6 4 -15.6 67 67 NE 7 11 30.45 1031 10 16 0.00 0.00
9:53 am 09:53 Sunny 13 -10.6 4 -15.6 67 67 NE 5 7 30.45 1031 10 16 0.00 0.00
10:53 am 10:53 Sunny 15 -9.4 5 -15 64 64 NE 3 6 30.45 1031 10 16 0.00 0.00
11:53 am 11:53 Partly Cloudy 16 -8.9 6 -14.4 65 65 VRB 3 6 30.44 1031 10 16 0.00 0.00
12:53 pm 12:53 Mostly Sunny 17 -8.3 7 -13.9 64 64 NNW 5 7 30.43 1030 10 16 0.00 0.00
1:53 pm 13:53 Cloudy 18 -7.8 7 -13.9 62 62 NE 6 9 30.41 1030 10 16 0.00 0.00
2:53 pm 14:53 Mostly Cloudy 17 -8.3 7 -13.9 64 64 ENE 6 9 30.40 1029 10 16 0.00 0.00
3:53 pm 15:53 Cloudy 17 -8.3 8 -13.3 68 68 E 7 11 30.38 1029 10 16 0.00 0.00
4:53 pm 16:53 Cloudy 16 -8.9 7 -13.9 67 67 ENE 9 15 30.37 1028 10 16 0.00 0.00
5:53 pm 17:53 Cloudy 14 -10 8 -13.3 77 77 ENE 10 17 30.37 1028 10 16 0.00 0.00
6:53 pm 18:53 Cloudy 13 -10.6 7 -13.9 77 77 E 12 19 30.35 1028 10 16 0.00 0.00
7:53 pm 19:53 Cloudy 11 -11.7 6 -14.4 81 81 ENE 12 19 30.33 1027 10 16 0.00 0.00
8:53 pm 20:53 Cloudy 10 -12.2 5 -15 80 80 ENE 13 20 30.34 1027 10 16 0.00 0.00
9:53 pm 21:53 Cloudy 10 -12.2 5 -15 80 80 ENE 13 20 30.33 1027 10 16 0.00 0.00
10:53 pm 22:53 Cloudy 9 -12.8 4 -15.6 80 80 ENE 14 22 30.30 1026 10 16 0.00 0.00
11:53 pm 23:53 Cloudy 9 -12.8 4 -15.6 80 80 E 12 19 30.28 1025 10 16 0.00 0.00

Powered by AerisWeather